This is the latest recevied weather packets stored in our database for station/object SV9TNF-1. If no packets are shown the sender has not sent any weather packets the latest 10 day(s).
| Time | Temp. | Humidity | Pressure | Rain* | Wind** | Luminosity | Snow |
|---|---|---|---|---|---|---|---|
| 1778241986 | 22.78° C | 63% | 1008.1 hPa | 0 mm | 4.47 m/s, 326° | - | - |
| 1778241686 | 22.22° C | 65% | 1008.1 hPa | 0 mm | 5.36 m/s, 222° | - | - |
| 1778241387 | 22.78° C | 64% | 1008.5 hPa | 0 mm | 5.81 m/s, 322° | - | - |
| 1778241086 | 22.78° C | 65% | 1008.5 hPa | 0 mm | 4.47 m/s, 190° | - | - |
| 1778240785 | 22.78° C | 65% | 1008.8 hPa | 0 mm | 1.79 m/s, 166° | - | - |
| 1778240486 | 22.78° C | 70% | 1008.8 hPa | 0 mm | 4.92 m/s, 183° | - | - |
| 1778240185 | 22.22° C | 70% | 1008.8 hPa | 0 mm | 9.83 m/s, 355° | - | - |
| 1778239886 | 22.22° C | 70% | 1008.5 hPa | 0 mm | 8.49 m/s, 317° | - | - |
| 1778239585 | 22.78° C | 70% | 1008.5 hPa | 0 mm | 5.81 m/s, 312° | - | - |
| 1778239285 | 23.33° C | 66% | 1008.8 hPa | 0 mm | 8.49 m/s, 329° | - | - |
| 1778238985 | 22.78° C | 69% | 1008.8 hPa | 0 mm | 2.68 m/s, 126° | - | - |
| 1778238685 | 22.78° C | 68% | 1008.8 hPa | 0 mm | 9.83 m/s, 10° | - | - |
| 1778238385 | 24.44° C | 61% | 1008.8 hPa | 0 mm | 2.68 m/s, 329° | - | - |
| 1778238085 | 23.89° C | 64% | 1008.8 hPa | 0 mm | 4.92 m/s, 91° | - | - |
| 1778237785 | 23.33° C | 63% | 1008.1 hPa | 0 mm | 6.71 m/s, 315° | - | - |
| 1778237484 | 23.89° C | 61% | 1008.1 hPa | 0 mm | 4.92 m/s, 340° | - | - |
| 1778237184 | 23.33° C | 62% | 1008.1 hPa | 0 mm | 1.34 m/s, 82° | - | - |
| 1778236884 | 23.33° C | 64% | 1008.1 hPa | 0 mm | 3.13 m/s, 76° | - | - |
| 1778236584 | 22.78° C | 65% | 1008.1 hPa | 0 mm | 3.13 m/s, 116° | - | - |
| 1778236284 | 22.78° C | 63% | 1007.8 hPa | 0 mm | 12.52 m/s, 355° | - | - |
| 1778235984 | 23.89° C | 60% | 1007.8 hPa | 0 mm | 8.05 m/s, 342° | - | - |
| 1778235684 | 24.44° C | 51% | 1007.8 hPa | 0 mm | 0.89 m/s, 139° | - | - |
| 1778235384 | 24.44° C | 47% | 1007.8 hPa | 0 mm | 1.79 m/s, 124° | - | - |
| 1778235084 | 24.44° C | 46% | 1008.1 hPa | 0 mm | 0 m/s | - | - |
| 1778234784 | 24.44° C | 46% | 1008.1 hPa | 0 mm | 0.89 m/s, 138° | - | - |
* Rain latest hour (hover to see other rain measurements)
** Current wind speed in m/s (hover to see current wind gust speed)